,,,PA_Meas_PMT16A,,PR_Meas_QMR101_102,,RH_Meas_QMH101,,SR_Meas_QMS101,,TA_Meas_QMH101,,GenWind,,GenWind,
date,time,status,PA,status,PR,status,RH,status,SR,status,TA,status,DirAvg,status,SpdAvg,
2012-03-29, 00:00:04,VALID,1005.62,VALID,0,VALID,89.5554,VALID,0,VALID,25.5298,VALID,331,VALID,0.267188,
2012-03-29, 00:01:04,VALID,1005.64,VALID,0,VALID,89.6317,VALID,0,VALID,25.5513,VALID,331,VALID,0.0449219,
2012-03-29, 00:02:04,VALID,1005.57,VALID,0,VALID,89.647,VALID,0,VALID,25.5727,VALID,331,VALID,0.206641,
2012-03-29, 00:03:04,VALID,1005.54,VALID,0,VALID,89.7156,VALID,0,VALID,25.5532,VALID,330,VALID,0,
2012-03-29, 00:04:04,VALID,1005.54,VALID,0,VALID,89.7538,VALID,0,VALID,25.5318,VALID,330,VALID,0,
2012-03-29, 00:05:04,VALID,1005.5,VALID,0,VALID,89.6927,VALID,0,VALID,25.5337,VALID,333,VALID,0.345703,
2012-03-29, 00:06:04,VALID,1005.52,VALID,0,VALID,89.8072,VALID,0,VALID,25.5337,VALID,351,VALID,0.894141,
2012-03-29, 00:07:04,VALID,1005.51,VALID,0,VALID,89.8377,VALID,0,VALID,25.5337,VALID,355,VALID,0.216406,
2012-03-29, 00:08:04,VALID,1005.51,VALID,0,VALID,89.9521,VALID,0,VALID,25.4928,VALID,353,VALID,0.151953,
2012-03-29, 00:09:04,VALID,1005.53,VALID,0,VALID,90.1505,VALID,0,VALID,25.4928,VALID,353,VALID,0.422656,
2012-03-29, 00:10:04,VALID,1005.5,VALID,0,VALID,90.2191,VALID,0,VALID,25.4948,VALID,350,VALID,0.446875,
2012-03-29, 00:11:04,VALID,1005.49,VALID,0,VALID,90.3412,VALID,0,VALID,25.4753,VALID,350,VALID,0.338672,
2012-03-29, 00:12:04,VALID,1005.46,VALID,0,VALID,90.3793,VALID,0,VALID,25.4753,VALID,326,VALID,0.174219,
2012-03-29, 00:13:04,VALID,1005.47,VALID,0,VALID,90.3793,VALID,0,VALID,25.4558,VALID,337,VALID,0.292969,
2012-03-29, 00:14:04,VALID,1005.45,VALID,0,VALID,90.4022,VALID,0,VALID,25.4363,VALID,353,VALID,0.292969,
2012-03-29, 00:15:04,VALID,1005.45,VALID,0,VALID,90.5624,VALID,0,VALID,25.4149,VALID,353,VALID,0,
2012-03-29, 00:16:04,VALID,1005.44,VALID,0,VALID,90.6998,VALID,0,VALID,25.4363,VALID,342,VALID,0.314844,
2012-03-29, 00:17:04,VALID,1005.41,VALID,0,VALID,90.776,VALID,0,VALID,25.4363,VALID,330,VALID,0.215625,
2012-03-29, 00:18:04,VALID,1005.41,VALID,0,VALID,90.7684,VALID,0,VALID,25.4149,VALID,288,VALID,0.691406,
2012-03-29, 00:19:04,VALID,1005.42,VALID,0,VALID,90.7455,VALID,0,VALID,25.4149,VALID,288,VALID,0.605859,
2012-03-29, 00:20:04,VALID,1005.4,VALID,0,VALID,90.8218,VALID,0,VALID,25.3955,VALID,287,VALID,0.530859,
2012-03-29, 00:21:04,VALID,1005.39,VALID,0,VALID,90.7074,VALID,0,VALID,25.4188,VALID,288,VALID,0.875781,
2012-03-29, 00:22:04,VALID,1005.35,VALID,0,VALID,90.7684,VALID,0,VALID,25.3741,VALID,294,VALID,0.228516,
2012-03-29, 00:23:04,VALID,1005.32,VALID,0,VALID,90.8523,VALID,0,VALID,25.4169,VALID,294,VALID,0,
2012-03-29, 00:24:04,VALID,1005.32,VALID,0,VALID,90.8218,VALID,0,VALID,25.4383,VALID,294,VALID,0,
2012-03-29, 00:25:04,VALID,1005.28,VALID,0,VALID,90.9286,VALID,0,VALID,25.4169,VALID,294,VALID,0.153906,
2012-03-29, 00:26:04,VALID,1005.26,VALID,0,VALID,90.9057,VALID,0,VALID,25.3974,VALID,295,VALID,0.184375,
2012-03-29, 00:27:04,VALID,1005.23,VALID,0,VALID,90.9363,VALID,0,VALID,25.3565,VALID,306,VALID,0.434375,
2012-03-29, 00:28:04,VALID,1005.18,VALID,0,VALID,91.0812,VALID,0,VALID,25.3779,VALID,338,VALID,0.578516,
2012-03-29, 00:29:04,VALID,1005.15,VALID,0,VALID,90.9897,VALID,0,VALID,25.3798,VALID,340,VALID,0.451953,
2012-03-29, 00:30:04,VALID,1005.18,VALID,0,VALID,91.1651,VALID,0,VALID,25.339,VALID,340,VALID,0.280469,
2012-03-29, 00:31:04,VALID,1005.15,VALID,0,VALID,91.188,VALID,0,VALID,25.3195,VALID,344,VALID,0.694922,
2012-03-29, 00:32:04,VALID,1005.12,VALID,0,VALID,91.3101,VALID,0,VALID,25.2786,VALID,345,VALID,0.433203,
2012-03-29, 00:33:04,VALID,1005.16,VALID,0,VALID,91.3635,VALID,0,VALID,25.3,VALID,345,VALID,0.403516,
2012-03-29, 00:34:04,VALID,1005.14,VALID,0,VALID,91.3864,VALID,0,VALID,25.2981,VALID,345,VALID,0.197266,
2012-03-29, 00:35:04,VALID,1005.1,VALID,0,VALID,91.5084,VALID,0,VALID,25.2786,VALID,345,VALID,0.165625,
2012-03-29, 00:36:04,VALID,1005.13,VALID,0,VALID,91.5237,VALID,0,VALID,25.3,VALID,342,VALID,0.0492188,
2012-03-29, 00:37:04,VALID,1005.09,VALID,0,VALID,91.5847,VALID,0,VALID,25.3,VALID,342,VALID,0.0386719,
2012-03-29, 00:38:04,VALID,1005.08,VALID,0,VALID,91.6,VALID,0,VALID,25.3,VALID,297,VALID,0.502344,
2012-03-29, 00:39:04,VALID,1005.05,VALID,0,VALID,91.5389,VALID,0,VALID,25.3,VALID,296,VALID,0.228516,
2012-03-29, 00:40:04,VALID,1005.02,VALID,0,VALID,91.5008,VALID,0,VALID,25.3,VALID,294,VALID,0.483203,
2012-03-29, 00:41:04,VALID,1004.98,VALID,0,VALID,91.3787,VALID,0,VALID,25.3,VALID,279,VALID,0.25625,
2012-03-29, 00:42:04,VALID,1004.94,VALID,0,VALID,91.3177,VALID,0,VALID,25.3195,VALID,280,VALID,0.065625,
2012-03-29, 00:43:04,VALID,1004.94,VALID,0,VALID,91.2262,VALID,0,VALID,25.3195,VALID,287,VALID,0.343359,
2012-03-29, 00:44:04,VALID,1004.89,VALID,0,VALID,91.1117,VALID,0,VALID,25.3195,VALID,287,VALID,0.512109,
2012-03-29, 00:45:04,VALID,1004.92,VALID,0,VALID,91.1499,VALID,0,VALID,25.2981,VALID,287,VALID,0.0554687,
2012-03-29, 00:46:04,VALID,1004.88,VALID,0,VALID,91.0125,VALID,0,VALID,25.2981,VALID,290,VALID,0.359766,
2012-03-29, 00:47:04,VALID,1004.83,VALID,0,VALID,90.8523,VALID,0,VALID,25.3195,VALID,301,VALID,0.769922,
2012-03-29, 00:48:04,VALID,1004.8,VALID,0,VALID,90.8676,VALID,0,VALID,25.3195,VALID,301,VALID,0.178906,
2012-03-29, 00:49:04,VALID,1004.78,VALID,0,VALID,90.8752,VALID,0,VALID,25.339,VALID,314,VALID,0.454688,
2012-03-29, 00:50:04,VALID,1004.75,VALID,0,VALID,90.8218,VALID,0,VALID,25.339,VALID,320,VALID,0.128906,
2012-03-29, 00:51:04,VALID,1004.74,VALID,0,VALID,90.6998,VALID,0,VALID,25.3195,VALID,300,VALID,0.587109,
2012-03-29, 00:52:04,VALID,1004.72,VALID,0,VALID,90.715,VALID,0,VALID,25.3195,VALID,338,VALID,0.528516,
2012-03-29, 00:53:04,VALID,1004.72,VALID,0,VALID,90.7074,VALID,0,VALID,25.339,VALID,337,VALID,0.289453,
2012-03-29, 00:54:04,VALID,1004.68,VALID,0,VALID,90.654,VALID,0,VALID,25.339,VALID,349,VALID,0.317187,
2012-03-29, 00:55:04,VALID,1004.7,VALID,0,VALID,90.6235,VALID,0,VALID,25.3176,VALID,345,VALID,0.359766,
2012-03-29, 00:56:04,VALID,1004.69,VALID,0,VALID,90.5014,VALID,0,VALID,25.3176,VALID,344,VALID,0.244141,
2012-03-29, 00:57:04,VALID,1004.68,VALID,0,VALID,90.4785,VALID,0,VALID,25.339,VALID,339,VALID,0.308203,
2012-03-29, 00:58:04,VALID,1004.64,VALID,0,VALID,90.448,VALID,0,VALID,25.3584,VALID,319,VALID,0.0964844,
2012-03-29, 00:59:04,VALID,1004.65,VALID,0,VALID,90.4022,VALID,0,VALID,25.3584,VALID,319,VALID,0.183203,
2012-03-29, 01:00:04,VALID,1004.59,VALID,0,VALID,90.2802,VALID,0,VALID,25.3584,VALID,319,VALID,0.389062,
2012-03-29, 01:01:04,VALID,1004.55,VALID,0,VALID,90.2649,VALID,0,VALID,25.3779,VALID,319,VALID,0.256641,
2012-03-29, 01:02:04,VALID,1004.47,VALID,0,VALID,90.2497,VALID,0,VALID,25.3779,VALID,320,VALID,0.417578,
2012-03-29, 01:03:04,VALID,1004.42,VALID,0,VALID,90.12,VALID,0,VALID,25.337,VALID,325,VALID,0.521484,
2012-03-29, 01:04:04,VALID,1004.4,VALID,0,VALID,90.036,VALID,0,VALID,25.3584,VALID,333,VALID,0.0578125,
2012-03-29, 01:05:04,VALID,1004.37,VALID,0,VALID,90.0894,VALID,0,VALID,25.3584,VALID,333,VALID,0.00585938,
2012-03-29, 01:06:04,VALID,1004.36,VALID,0,VALID,90.0055,VALID,0,VALID,25.3584,VALID,343,VALID,0.247266,
2012-03-29, 01:07:04,VALID,1004.33,VALID,0,VALID,89.9445,VALID,0,VALID,25.337,VALID,348,VALID,0.652734,
2012-03-29, 01:08:04,VALID,1004.28,VALID,0,VALID,90.0132,VALID,0,VALID,25.337,VALID,348,VALID,0.293359,
2012-03-29, 01:09:04,VALID,1004.27,VALID,0,VALID,89.9674,VALID,0,VALID,25.3584,VALID,342,VALID,0.636719,
2012-03-29, 01:10:04,VALID,1004.25,VALID,0,VALID,89.8987,VALID,0,VALID,25.339,VALID,350,VALID,0.717578,
2012-03-29, 01:11:04,VALID,1004.25,VALID,0,VALID,89.8911,VALID,0,VALID,25.3584,VALID,344,VALID,0.5625,
2012-03-29, 01:12:04,VALID,1004.33,VALID,0,VALID,89.9445,VALID,0,VALID,25.3584,VALID,347,VALID,0.1375,
2012-03-29, 01:13:04,VALID,1004.33,VALID,0,VALID,89.8072,VALID,0,VALID,25.3779,VALID,278,VALID,0.872656,
2012-03-29, 01:14:04,VALID,1004.4,VALID,0,VALID,89.6546,VALID,0,VALID,25.3779,VALID,292,VALID,0.820313,
2012-03-29, 01:15:04,VALID,1004.44,VALID,0,VALID,89.4868,VALID,0,VALID,25.3955,VALID,291,VALID,0.991016,
2012-03-29, 01:16:04,VALID,1004.49,VALID,0,VALID,89.5554,VALID,0,VALID,25.4558,VALID,287,VALID,0.582812,
2012-03-29, 01:17:04,VALID,1004.52,VALID,0,VALID,89.6088,VALID,0,VALID,25.4558,VALID,291,VALID,0.645312,
2012-03-29, 01:18:04,VALID,1004.53,VALID,0,VALID,89.7156,VALID,0,VALID,25.4363,VALID,290,VALID,0.253125,
2012-03-29, 01:19:04,VALID,1004.54,VALID,0,VALID,89.5325,VALID,0,VALID,25.4363,VALID,287,VALID,1.17891,
2012-03-29, 01:20:04,VALID,1004.57,VALID,0.5,VALID,89.3647,VALID,0,VALID,25.4363,VALID,298,VALID,1.28359,
2012-03-29, 01:21:04,VALID,1004.56,VALID,0,VALID,89.2732,VALID,0,VALID,25.4363,VALID,293,VALID,0.895703,
2012-03-29, 01:22:04,VALID,1004.55,VALID,0,VALID,89.4334,VALID,0,VALID,25.4753,VALID,293,VALID,0.163672,
2012-03-29, 01:23:04,VALID,1004.56,VALID,0,VALID,89.5936,VALID,0,VALID,25.4753,VALID,293,VALID,0.138672,
2012-03-29, 01:24:04,VALID,1004.57,VALID,0,VALID,89.647,VALID,0,VALID,25.4948,VALID,346,VALID,0.835156,
2012-03-29, 01:25:04,VALID,1004.51,VALID,0,VALID,89.7385,VALID,0,VALID,25.4539,VALID,346,VALID,0.00195313,
2012-03-29, 01:26:04,VALID,1004.53,VALID,0,VALID,89.7919,VALID,0,VALID,25.4558,VALID,346,VALID,0,
2012-03-29, 01:27:04,VALID,1004.52,VALID,0,VALID,89.853,VALID,0,VALID,25.4344,VALID,346,VALID,0.157813,
2012-03-29, 01:28:04,VALID,1004.53,VALID,0,VALID,89.9674,VALID,0,VALID,25.4363,VALID,346,VALID,0,
2012-03-29, 01:29:04,VALID,1004.51,VALID,0,VALID,90.12,VALID,0,VALID,25.4363,VALID,346,VALID,0.178906,
2012-03-29, 01:30:04,VALID,1004.46,VALID,0,VALID,90.0971,VALID,0,VALID,25.4363,VALID,346,VALID,0.561719,
2012-03-29, 01:31:04,VALID,1004.44,VALID,0,VALID,90.2115,VALID,0,VALID,25.4558,VALID,346,VALID,0.166406,
2012-03-29, 01:32:04,VALID,1004.41,VALID,0,VALID,90.2878,VALID,0,VALID,25.4558,VALID,346,VALID,0.5125,
2012-03-29, 01:33:04,VALID,1004.4,VALID,0,VALID,90.3031,VALID,0,VALID,25.4363,VALID,346,VALID,0.414063,
2012-03-29, 01:34:04,VALID,1004.44,VALID,0,VALID,90.2115,VALID,0,VALID,25.4363,VALID,346,VALID,0.102344,
2012-03-29, 01:35:04,VALID,1004.48,VALID,0,VALID,90.2802,VALID,0,VALID,25.4149,VALID,310,VALID,0.606641,
2012-03-29, 01:36:04,VALID,1004.57,VALID,0,VALID,90.5396,VALID,0,VALID,25.4558,VALID,182,VALID,1.68086,
2012-03-29, 01:37:04,VALID,1004.63,VALID,0,VALID,89.9369,VALID,0,VALID,25.4558,VALID,200,VALID,1.14375,
2012-03-29, 01:38:04,VALID,1004.68,VALID,0,VALID,86.42,VALID,0,VALID,25.3176,VALID,240,VALID,0.801172,
2012-03-29, 01:39:04,VALID,1004.69,VALID,0,VALID,86.5802,VALID,0,VALID,25.3214,VALID,229,VALID,0.621094,
2012-03-29, 01:40:05,VALID,1004.7,VALID,0,VALID,85.9393,VALID,0,VALID,25.2007,VALID,258,VALID,1.11641,
2012-03-29, 01:41:05,VALID,1004.7,VALID,0,VALID,85.5732,VALID,0,VALID,25.224,VALID,308,VALID,0.414063,
2012-03-29, 01:42:05,VALID,1004.67,VALID,0,VALID,85.4663,VALID,0,VALID,25.1229,VALID,285,VALID,0.509766,
2012-03-29, 01:43:05,VALID,1004.68,VALID,0,VALID,85.7791,VALID,0,VALID,25.0839,VALID,291,VALID,0.658203,
2012-03-29, 01:44:05,VALID,1004.68,VALID,0,VALID,85.8478,VALID,0,VALID,25.0663,VALID,199,VALID,0.323828,
2012-03-29, 01:45:05,VALID,1004.69,VALID,0,VALID,86.3513,VALID,0,VALID,25.0255,VALID,207,VALID,1.16289,
2012-03-29, 01:46:05,VALID,1004.72,VALID,0,VALID,87.6406,VALID,0,VALID,25.0663,VALID,277,VALID,0.820703,
2012-03-29, 01:47:05,VALID,1004.75,VALID,0,VALID,88.2433,VALID,0,VALID,25.045,VALID,233,VALID,1.50352,
2012-03-29, 01:48:05,VALID,1004.76,VALID,0,VALID,88.7849,VALID,0,VALID,25.0663,VALID,345,VALID,0.416406,
2012-03-29, 01:49:05,VALID,1004.71,VALID,0,VALID,89.441,VALID,0,VALID,25.0644,VALID,269,VALID,0.728125,
2012-03-29, 01:50:05,VALID,1004.7,VALID,0,VALID,89.8682,VALID,0,VALID,25.0858,VALID,204,VALID,0.623047,
2012-03-29, 01:51:05,VALID,1004.7,VALID,0,VALID,90.1429,VALID,0,VALID,25.1053,VALID,232,VALID,0.901563,
2012-03-29, 01:52:05,VALID,1004.6,VALID,0,VALID,90.3107,VALID,0,VALID,25.0839,VALID,221,VALID,0.216406,
2012-03-29, 01:53:05,VALID,1004.57,VALID,0,VALID,90.9668,VALID,0,VALID,25.1637,VALID,242,VALID,1.27539,
2012-03-29, 01:54:05,VALID,1004.52,VALID,0,VALID,91.1346,VALID,0,VALID,25.1813,VALID,290,VALID,0.654688,
2012-03-29, 01:55:05,VALID,1004.53,VALID,0,VALID,91.0125,VALID,0,VALID,25.2007,VALID,285,VALID,1.02266,
2012-03-29, 01:56:05,VALID,1004.54,VALID,0,VALID,91.0812,VALID,0,VALID,25.2202,VALID,233,VALID,0.165625,
2012-03-29, 01:57:05,VALID,1004.59,VALID,0,VALID,91.3177,VALID,0,VALID,25.2611,VALID,261,VALID,1.09258,
2012-03-29, 01:58:05,VALID,1004.6,VALID,0,VALID,91.5161,VALID,0,VALID,25.3195,VALID,285,VALID,0.966016,
2012-03-29, 01:59:05,VALID,1004.61,VALID,0,VALID,91.2796,VALID,0,VALID,25.3195,VALID,257,VALID,2.24648,
2012-03-29, 02:00:05,VALID,1004.68,VALID,0,VALID,91.4932,VALID,0,VALID,25.3,VALID,207,VALID,1.27734,
2012-03-29, 02:01:05,VALID,1004.69,VALID,0,VALID,91.3787,VALID,0,VALID,25.2202,VALID,175,VALID,0.899609,
2012-03-29, 02:02:05,VALID,1004.65,VALID,0.5,VALID,90.4327,VALID,0,VALID,25.1053,VALID,273,VALID,1.94844,
2012-03-29, 02:03:05,VALID,1004.67,VALID,0,VALID,89.0061,VALID,0,VALID,24.8716,VALID,233,VALID,2.98594,
2012-03-29, 02:04:05,VALID,1004.65,VALID,0,VALID,90.2878,VALID,0,VALID,24.6964,VALID,199,VALID,1.8207,
2012-03-29, 02:05:05,VALID,1004.64,VALID,0.5,VALID,90.6235,VALID,0,VALID,24.5406,VALID,222,VALID,1.66289,
2012-03-29, 02:06:05,VALID,1004.62,VALID,0.5,VALID,91.0049,VALID,0,VALID,24.3441,VALID,225,VALID,1.36211,
2012-03-29, 02:07:05,VALID,1004.54,VALID,0,VALID,91.7373,VALID,0,VALID,24.2681,VALID,272,VALID,0.719141,
2012-03-29, 02:08:05,VALID,1004.56,VALID,0,VALID,92.134,VALID,0,VALID,24.13,VALID,213,VALID,0.905078,
2012-03-29, 02:09:05,VALID,1004.57,VALID,0.5,VALID,92.5841,VALID,0,VALID,24.1105,VALID,273,VALID,0.725391,
2012-03-29, 02:10:05,VALID,1004.59,VALID,0,VALID,92.8664,VALID,0,VALID,24.0716,VALID,191,VALID,0.759375,
2012-03-29, 02:11:05,VALID,1004.57,VALID,0,VALID,93.0495,VALID,0,VALID,24.0539,VALID,230,VALID,0.226953,
2012-03-29, 02:12:05,VALID,1004.59,VALID,0,VALID,93.1486,VALID,0,VALID,24.0326,VALID,217,VALID,0.678906,
2012-03-29, 02:13:05,VALID,1004.56,VALID,0,VALID,93.1181,VALID,0,VALID,23.9742,VALID,253,VALID,0.523828,
2012-03-29, 02:14:05,VALID,1004.55,VALID,0,VALID,93.408,VALID,0,VALID,23.9761,VALID,305,VALID,0.805078,
2012-03-29, 02:15:05,VALID,1004.47,VALID,0.5,VALID,93.4462,VALID,0,VALID,23.9353,VALID,306,VALID,0.392578,
2012-03-29, 02:16:05,VALID,1004.46,VALID,0,VALID,93.5301,VALID,0,VALID,23.9353,VALID,316,VALID,0.296094,
2012-03-29, 02:17:05,VALID,1004.41,VALID,0,VALID,93.614,VALID,0,VALID,23.9548,VALID,353,VALID,1.2,
2012-03-29, 02:18:05,VALID,1004.4,VALID,0,VALID,93.7284,VALID,0,VALID,23.9566,VALID,354,VALID,0.953125,
2012-03-29, 02:19:05,VALID,1004.41,VALID,0,VALID,93.8734,VALID,0,VALID,23.9761,VALID,354,VALID,0.585156,
2012-03-29, 02:20:05,VALID,1004.36,VALID,0,VALID,93.9191,VALID,0,VALID,23.9761,VALID,354,VALID,0.5625,
2012-03-29, 02:21:05,VALID,1004.41,VALID,0,VALID,93.9268,VALID,0,VALID,23.9159,VALID,358,VALID,0.167578,
2012-03-29, 02:22:05,VALID,1004.37,VALID,0,VALID,93.9725,VALID,0,VALID,23.9371,VALID,3,VALID,0.780469,
2012-03-29, 02:23:05,VALID,1004.33,VALID,0,VALID,93.9115,VALID,0,VALID,23.9159,VALID,7,VALID,0.388672,
2012-03-29, 02:24:05,VALID,1004.32,VALID,0,VALID,94.0259,VALID,0,VALID,23.9159,VALID,7,VALID,0.228125,
2012-03-29, 02:25:05,VALID,1004.3,VALID,0,VALID,94.0794,VALID,0,VALID,23.8946,VALID,7,VALID,0.328125,
2012-03-29, 02:26:05,VALID,1004.31,VALID,0,VALID,94.1404,VALID,0,VALID,23.914,VALID,7,VALID,0.373828,
2012-03-29, 02:27:05,VALID,1004.32,VALID,0,VALID,94.2167,VALID,0,VALID,23.9353,VALID,7,VALID,0.267578,
2012-03-29, 02:28:05,VALID,1004.32,VALID,0,VALID,94.2624,VALID,0,VALID,23.9371,VALID,7,VALID,0,
2012-03-29, 02:29:05,VALID,1004.32,VALID,0,VALID,94.3082,VALID,0,VALID,23.9566,VALID,7,VALID,0,
2012-03-29, 02:30:05,VALID,1004.29,VALID,0,VALID,94.3235,VALID,0,VALID,23.9548,VALID,7,VALID,0.028125,
2012-03-29, 02:31:05,VALID,1004.29,VALID,0,VALID,94.3616,VALID,0,VALID,23.9353,VALID,7,VALID,0,
2012-03-29, 02:32:05,VALID,1004.28,VALID,0,VALID,94.3616,VALID,0,VALID,23.9353,VALID,7,VALID,0,
2012-03-29, 02:33:05,VALID,1004.27,VALID,0,VALID,94.3921,VALID,0.0815089,VALID,23.9548,VALID,7,VALID,0,
2012-03-29, 02:34:05,VALID,1004.27,VALID,0,VALID,94.4303,VALID,0,VALID,23.9548,VALID,7,VALID,0,
2012-03-29, 02:35:05,VALID,1004.27,VALID,0,VALID,94.4684,VALID,0,VALID,23.9742,VALID,7,VALID,0,
2012-03-29, 02:36:05,VALID,1004.26,VALID,0,VALID,94.4989,VALID,0.0815089,VALID,23.9742,VALID,7,VALID,0,
2012-03-29, 02:37:05,VALID,1004.27,VALID,0,VALID,94.5676,VALID,0.0815089,VALID,24.0132,VALID,7,VALID,0,
2012-03-29, 02:38:05,VALID,1004.28,VALID,0,VALID,94.5829,VALID,0,VALID,24.0326,VALID,7,VALID,0,
2012-03-29, 02:39:05,VALID,1004.32,VALID,0,VALID,94.5905,VALID,0,VALID,23.9919,VALID,7,VALID,0,
2012-03-29, 02:40:05,VALID,1004.33,VALID,0,VALID,94.5905,VALID,0,VALID,24.0326,VALID,7,VALID,0,
2012-03-29, 02:41:05,VALID,1004.29,VALID,0,VALID,94.5829,VALID,0,VALID,24.0345,VALID,7,VALID,0,
2012-03-29, 02:42:05,VALID,1004.27,VALID,0,VALID,94.621,VALID,0,VALID,24.0326,VALID,7,VALID,0,
2012-03-29, 02:43:05,VALID,1004.24,VALID,0,VALID,94.621,VALID,0,VALID,24.0326,VALID,7,VALID,0,
2012-03-29, 02:44:05,VALID,1004.2,VALID,0,VALID,94.6286,VALID,0,VALID,24.0521,VALID,7,VALID,0,
2012-03-29, 02:45:05,VALID,1004.16,VALID,0,VALID,94.6973,VALID,0,VALID,24.0326,VALID,7,VALID,0,
2012-03-29, 02:46:05,VALID,1004.17,VALID,0,VALID,94.7431,VALID,0,VALID,24.0716,VALID,7,VALID,0.226953,
2012-03-29, 02:47:05,VALID,1004.15,VALID,0,VALID,94.7583,VALID,0.0815089,VALID,24.091,VALID,7,VALID,0.432813,
2012-03-29, 02:48:05,VALID,1004.15,VALID,0,VALID,94.8346,VALID,0,VALID,24.13,VALID,7,VALID,0.583984,
2012-03-29, 02:49:05,VALID,1004.15,VALID,0,VALID,94.8575,VALID,0.0815089,VALID,24.13,VALID,7,VALID,0.388281,
2012-03-29, 02:50:05,VALID,1004.13,VALID,0,VALID,94.8728,VALID,0.0815089,VALID,24.1689,VALID,7,VALID,0.551562,
2012-03-29, 02:51:05,VALID,1004.14,VALID,0,VALID,94.9033,VALID,0,VALID,24.1884,VALID,7,VALID,0.503125,
2012-03-29, 02:52:05,VALID,1004.07,VALID,0,VALID,94.9109,VALID,0,VALID,24.2273,VALID,360,VALID,0.596484,
2012-03-29, 02:53:05,VALID,1004.08,VALID,0,VALID,94.9033,VALID,0,VALID,24.2662,VALID,357,VALID,0.687891,
2012-03-29, 02:54:05,VALID,1004.06,VALID,0,VALID,94.9262,VALID,0,VALID,24.2857,VALID,352,VALID,0.863281,
2012-03-29, 02:55:05,VALID,1004.03,VALID,0,VALID,94.9262,VALID,0,VALID,24.3246,VALID,353,VALID,0.591406,
2012-03-29, 02:56:05,VALID,1004,VALID,0,VALID,94.9414,VALID,0,VALID,24.3849,VALID,353,VALID,0.665625,
2012-03-29, 02:57:05,VALID,1003.97,VALID,0,VALID,94.9109,VALID,0,VALID,24.383,VALID,353,VALID,0.274609,
2012-03-29, 02:58:05,VALID,1003.95,VALID,0,VALID,94.9414,VALID,0,VALID,24.4025,VALID,353,VALID,0.734375,
2012-03-29, 02:59:05,VALID,1003.94,VALID,0,VALID,94.9338,VALID,0,VALID,24.4433,VALID,355,VALID,0.857031,
2012-03-29, 03:00:05,VALID,1003.89,VALID,0,VALID,94.9262,VALID,0,VALID,24.4998,VALID,356,VALID,0.0761719,
2012-03-29, 03:01:05,VALID,1003.86,VALID,0,VALID,94.9185,VALID,0,VALID,24.5406,VALID,356,VALID,0.317578,
2012-03-29, 03:02:05,VALID,1003.86,VALID,0,VALID,94.9109,VALID,0,VALID,24.5388,VALID,353,VALID,0.205078,
2012-03-29, 03:03:05,VALID,1003.85,VALID,0,VALID,94.8956,VALID,0,VALID,24.5582,VALID,353,VALID,0.0726563,
2012-03-29, 03:04:05,VALID,1003.83,VALID,0,VALID,94.9033,VALID,0,VALID,24.5777,VALID,354,VALID,0.684766,
2012-03-29, 03:05:05,VALID,1003.81,VALID,0,VALID,94.888,VALID,0,VALID,24.6166,VALID,344,VALID,0.510547,
2012-03-29, 03:06:05,VALID,1003.78,VALID,0,VALID,94.8728,VALID,0,VALID,24.6556,VALID,349,VALID,0.900391,
2012-03-29, 03:07:05,VALID,1003.8,VALID,0,VALID,94.8651,VALID,0,VALID,24.7159,VALID,351,VALID,0.864453,
2012-03-29, 03:08:05,VALID,1003.78,VALID,0,VALID,94.8346,VALID,0,VALID,24.714,VALID,341,VALID,0.812891,
2012-03-29, 03:09:05,VALID,1003.76,VALID,0,VALID,94.8346,VALID,0,VALID,24.7335,VALID,348,VALID,0.3125,
2012-03-29, 03:10:05,VALID,1003.73,VALID,0,VALID,94.8041,VALID,0,VALID,24.7724,VALID,350,VALID,0.501562,
2012-03-29, 03:11:05,VALID,1003.73,VALID,0,VALID,94.766,VALID,0,VALID,24.7919,VALID,356,VALID,1.46094,
2012-03-29, 03:12:05,VALID,1003.71,VALID,0,VALID,94.7736,VALID,0,VALID,24.8308,VALID,339,VALID,0.540625,
2012-03-29, 03:13:05,VALID,1003.69,VALID,0,VALID,94.7431,VALID,0,VALID,24.8716,VALID,273,VALID,0.810156,
2012-03-29, 03:14:05,VALID,1003.67,VALID,0,VALID,94.682,VALID,0,VALID,24.8503,VALID,348,VALID,1.19062,
2012-03-29, 03:15:05,VALID,1003.67,VALID,0,VALID,94.6363,VALID,0,VALID,24.8697,VALID,284,VALID,0.624219,
2012-03-29, 03:16:05,VALID,1003.65,VALID,0,VALID,94.5676,VALID,0,VALID,24.8892,VALID,299,VALID,0.505469,
2012-03-29, 03:17:05,VALID,1003.62,VALID,0,VALID,94.5142,VALID,0,VALID,24.9087,VALID,302,VALID,0.300391,
2012-03-29, 03:18:05,VALID,1003.63,VALID,0,VALID,94.4608,VALID,0,VALID,24.9282,VALID,301,VALID,0.200781,
2012-03-29, 03:19:05,VALID,1003.61,VALID,0,VALID,94.415,VALID,0,VALID,24.9282,VALID,301,VALID,0.101563,
2012-03-29, 03:20:05,VALID,1003.61,VALID,0,VALID,94.3998,VALID,0,VALID,24.9495,VALID,301,VALID,0.0980469,
2012-03-29, 03:21:05,VALID,1003.62,VALID,0,VALID,94.4074,VALID,0,VALID,24.9476,VALID,301,VALID,0.441406,
2012-03-29, 03:22:05,VALID,1003.58,VALID,0,VALID,94.354,VALID,0,VALID,24.9495,VALID,292,VALID,0.814844,
2012-03-29, 03:23:05,VALID,1003.59,VALID,0,VALID,94.3235,VALID,0,VALID,24.969,VALID,305,VALID,0.274609,
2012-03-29, 03:24:05,VALID,1003.56,VALID,0,VALID,94.2548,VALID,0,VALID,24.9476,VALID,314,VALID,0.490234,
2012-03-29, 03:25:05,VALID,1003.57,VALID,0,VALID,94.1862,VALID,0,VALID,24.9671,VALID,290,VALID,0.580469,
2012-03-29, 03:26:05,VALID,1003.54,VALID,0,VALID,94.0641,VALID,0,VALID,24.9866,VALID,315,VALID,0.714063,
2012-03-29, 03:27:05,VALID,1003.57,VALID,0,VALID,93.9649,VALID,0,VALID,25.0079,VALID,302,VALID,0.739062,
2012-03-29, 03:28:05,VALID,1003.57,VALID,0,VALID,93.9344,VALID,0,VALID,24.9866,VALID,279,VALID,0.2875,
2012-03-29, 03:29:05,VALID,1003.57,VALID,0,VALID,93.9268,VALID,0,VALID,25.0079,VALID,279,VALID,0.0578125,
2012-03-29, 03:30:05,VALID,1003.55,VALID,0,VALID,93.8734,VALID,0,VALID,24.9866,VALID,315,VALID,0.760938,
2012-03-29, 03:31:05,VALID,1003.55,VALID,0,VALID,93.8276,VALID,0,VALID,24.9652,VALID,321,VALID,0.471094,
2012-03-29, 03:32:05,VALID,1003.59,VALID,0,VALID,93.8352,VALID,0,VALID,25.0274,VALID,298,VALID,0.503125,
2012-03-29, 03:33:05,VALID,1003.56,VALID,0,VALID,93.8047,VALID,0,VALID,25.0274,VALID,316,VALID,0.580078,
2012-03-29, 03:34:05,VALID,1003.55,VALID,0,VALID,93.7437,VALID,0,VALID,25.0469,VALID,299,VALID,0.824219,
2012-03-29, 03:35:05,VALID,1003.54,VALID,0,VALID,93.7284,VALID,0,VALID,25.0663,VALID,286,VALID,0.226563,
2012-03-29, 03:36:05,VALID,1003.54,VALID,0,VALID,93.7361,VALID,0,VALID,25.045,VALID,286,VALID,0.378125,
2012-03-29, 03:37:05,VALID,1003.54,VALID,0,VALID,93.7742,VALID,0,VALID,25.0858,VALID,330,VALID,0.535547,
2012-03-29, 03:38:05,VALID,1003.52,VALID,0,VALID,93.7208,VALID,0,VALID,25.0644,VALID,329,VALID,0.394531,
2012-03-29, 03:39:05,VALID,1003.55,VALID,0,VALID,93.6903,VALID,0,VALID,25.0644,VALID,336,VALID,0.326562,
2012-03-29, 03:40:05,VALID,1003.53,VALID,0,VALID,93.6521,VALID,0,VALID,25.0644,VALID,351,VALID,0.364062,
2012-03-29, 03:41:05,VALID,1003.56,VALID,0,VALID,93.5911,VALID,0,VALID,25.0644,VALID,192,VALID,0.937109,
2012-03-29, 03:42:05,VALID,1003.54,VALID,0,VALID,93.4996,VALID,0,VALID,25.1248,VALID,305,VALID,1.64414,
2012-03-29, 03:43:05,VALID,1003.54,VALID,0,VALID,93.3699,VALID,0,VALID,25.1618,VALID,264,VALID,0.751953,
2012-03-29, 03:44:05,VALID,1003.55,VALID,0,VALID,93.2631,VALID,0,VALID,25.2007,VALID,321,VALID,0.608594,
2012-03-29, 03:45:05,VALID,1003.56,VALID,0,VALID,93.0342,VALID,0,VALID,25.2611,VALID,224,VALID,1.14063,
2012-03-29, 03:46:05,VALID,1003.55,VALID,0,VALID,92.4239,VALID,0,VALID,25.3195,VALID,264,VALID,1.55391,